Theta_e
347 347 347 342 339 337 338 339 338 337 334 333 333 335 335 335 335 334 335 335 335 334 335 334 334 334 330 326 324 322 320 317 315 314 315 316 318 320 323 327 329 330 332 331 331 332 331 331 330 329 327 324 317 314 321 328 328 330 332 332 333 333 334 334 334 334 334 334 333 333 330 324 317 312 307 305 305 305 305 305 305 305 305 305 306
345 347 347 341 339 336 336 337 336 335 332 332 333 334 334 334 334 334 335 335 335 335 335 334 334 333 328 325 324 322 319 316 314 315 316 316 318 321 325 328 329 331 333 332 332 332 330 330 330 328 327 324 317 314 321 327 328 330 331 333 333 333 334 334 334 334 334 334 333 331 327 322 315 309 306 305 305 305 305 305 305 305 306 306 306
345 348 346 340 340 336 336 336 335 334 331 331 332 333 333 333 334 334 335 335 335 335 335 334 333 330 326 324 324 322 318 315 314 315 316 318 320 323 327 330 330 332 333 333 333 331 329 329 328 326 324 322 316 313 321 327 328 330 331 332 333 334 334 334 334 334 334 333 332 329 323 320 314 309 306 305 305 305 305 305 306 306 307 307 306
345 348 345 341 339 336 337 336 334 332 330 330 330 332 332 333 333 334 335 335 335 335 334 333 332 327 324 323 323 321 317 315 315 315 316 320 324 326 328 331 331 333 333 333 332 329 327 326 325 324 319 315 311 313 322 328 329 330 331 332 333 334 334 334 334 334 333 331 331 330 327 321 312 308 306 305 305 305 306 306 306 307 307 307 307
344 348 344 340 338 336 337 335 334 331 329 329 329 330 330 332 332 333 334 333 334 334 334 332 329 325 323 322 321 320 317 315 314 316 318 324 327 327 330 331 332 333 332 331 330 327 324 322 319 316 312 309 310 315 325 329 330 331 332 333 333 333 333 333 333 333 332 330 331 332 331 325 311 306 306 304 305 305 306 307 307 308 308 308 308
346 349 344 340 339 336 336 335 333 331 329 328 327 329 329 330 329 331 332 332 331 332 333 330 327 324 322 321 320 318 316 316 315 317 320 326 328 329 330 331 332 332 331 329 327 322 317 313 311 309 309 312 313 318 327 330 330 331 332 332 333 333 332 332 333 332 331 330 332 332 332 330 318 305 305 305 305 306 306 307 307 309 309 309 309
345 348 344 340 340 337 336 335 332 330 329 328 327 327 327 328 328 329 329 329 329 329 330 329 326 322 321 319 318 317 316 316 316 318 321 326 328 329 329 329 330 329 328 325 320 315 310 309 309 309 311 313 315 320 327 330 331 331 331 331 331 331 331 331 331 329 329 331 333 332 332 332 323 306 305 306 305 306 306 307 308 310 311 310 310
344 348 345 339 341 338 336 335 332 330 328 327 326 326 326 327 327 326 326 326 326 325 327 327 324 320 319 317 317 316 316 316 317 319 321 325 327 329 330 330 329 326 323 319 313 309 309 310 312 313 313 312 313 317 320 323 324 326 328 328 329 328 328 328 327 324 325 331 332 331 330 331 323 307 305 306 306 307 306 308 309 311 311 310 311
345 347 344 339 340 338 336 336 333 330 327 326 325 325 325 325 325 324 323 322 321 321 321 322 320 318 317 317 317 316 316 316 317 320 323 327 330 332 332 331 326 322 319 313 310 311 313 314 315 318 318 317 316 317 319 321 317 316 318 319 321 321 321 320 319 319 324 328 330 331 330 331 326 310 305 307 307 308 307 309 309 310 312 311 311
346 346 345 341 339 337 336 336 334 330 327 325 324 324 324 323 321 320 318 317 316 316 316 317 317 316 316 317 316 316 316 317 319 325 329 330 331 331 329 326 322 320 316 312 317 323 325 324 325 325 324 322 322 323 325 327 322 315 310 310 311 310 312 309 311 317 322 325 324 325 323 328 327 311 305 307 307 309 310 310 309 310 311 311 311
345 345 345 344 339 337 336 335 334 330 326 323 323 323 321 319 317 315 314 313 313 313 313 314 316 316 316 316 316 316 316 318 324 329 329 328 327 326 323 320 318 318 315 316 326 332 333 333 332 330 327 326 326 327 328 327 323 316 310 309 307 306 306 306 317 320 318 321 317 313 310 319 323 309 305 307 307 309 310 310 310 311 311 311 311
344 345 345 345 340 337 337 335 334 328 323 321 321 320 318 316 314 313 313 313 313 313 312 314 316 316 317 316 315 315 316 318 323 325 323 322 322 321 318 316 315 317 318 323 330 333 334 334 332 329 327 326 327 328 326 322 319 316 312 310 307 307 305 307 324 322 316 318 311 310 315 322 320 306 307 307 307 309 309 311 310 311 312 311 310
342 343 343 343 339 338 338 337 335 328 322 319 319 318 316 314 313 312 312 313 313 313 313 315 316 317 317 315 315 315 315 316 316 317 316 316 317 317 316 314 314 316 321 325 329 331 332 332 329 325 324 325 326 325 322 319 319 317 312 310 308 307 306 308 321 320 316 314 308 312 318 321 315 305 308 308 307 309 309 311 311 311 311 311 311
338 340 341 341 338 338 338 338 335 326 320 317 317 316 315 313 312 312 312 312 312 313 314 316 317 317 316 315 316 315 315 316 317 318 318 317 314 314 314 314 313 315 319 324 326 328 328 328 324 322 322 324 324 323 322 322 323 320 315 312 309 306 307 309 317 317 312 309 309 313 311 310 308 306 308 307 309 309 310 311 311 311 310 310 310
338 339 341 339 337 339 338 337 333 325 322 318 315 314 314 313 312 312 312 312 312 313 315 316 317 317 316 316 316 317 319 323 326 328 329 328 323 316 313 313 313 313 316 319 322 324 324 322 321 321 322 323 322 323 324 325 325 324 321 317 312 307 309 315 319 316 308 306 309 314 312 307 306 307 307 308 310 310 310 311 310 311 310 310 310
340 339 341 341 336 337 338 337 333 327 325 321 316 314 313 313 312 312 312 312 313 313 315 316 317 317 316 317 319 321 326 329 331 332 333 335 333 328 322 317 313 312 314 316 319 320 320 320 320 321 322 322 322 324 325 326 325 326 325 322 318 309 308 319 322 316 311 310 309 316 316 307 306 307 307 309 309 310 310 310 310 310 310 310 309
343 342 342 344 338 335 336 337 332 327 326 321 318 317 313 313 312 312 312 312 312 313 314 316 317 317 317 318 321 325 328 330 331 332 334 334 335 334 332 329 323 317 314 314 317 318 318 318 320 321 322 323 322 324 325 325 326 327 327 326 323 315 310 318 326 321 314 311 308 318 320 306 306 308 307 309 308 310 309 309 309 309 309 309 309
347 346 345 346 341 336 335 336 334 327 324 319 317 319 315 312 313 312 312 312 312 313 315 316 317 317 317 318 322 328 328 329 332 332 333 333 334 334 334 334 332 328 322 318 317 317 318 317 319 321 322 323 323 324 324 325 326 327 328 328 326 323 317 319 329 324 310 307 310 319 320 307 306 308 307 308 307 308 308 309 308 307 308 308 308
349 347 346 346 343 339 337 338 336 330 328 321 315 317 316 313 313 313 312 312 312 312 313 315 316 317 317 318 324 330 330 330 332 332 333 332 332 333 333 334 334 333 331 329 323 318 318 319 319 321 323 324 324 324 324 325 326 327 327 328 328 328 324 324 331 328 316 312 314 317 312 305 306 307 307 307 307 307 307 307 307 307 307 307 307
349 346 345 345 344 340 338 336 335 334 331 323 315 316 317 314 312 313 312 312 313 312 313 314 314 315 316 319 326 331 330 330 331 332 332 332 332 333 333 333 334 334 333 333 331 324 320 320 320 322 324 325 325 325 325 325 326 327 327 328 328 328 328 330 331 331 328 319 317 318 308 305 307 306 306 307 306 306 306 306 306 307 306 306 306
347 344 343 344 343 339 337 335 335 336 330 322 319 317 315 313 312 313 313 313 312 313 313 312 314 318 319 322 328 329 330 331 331 332 332 332 333 334 334 333 334 334 333 332 332 330 326 323 322 324 326 327 327 327 326 326 326 326 327 327 327 329 330 331 331 332 333 325 322 323 313 307 307 306 307 306 306 306 306 306 305 306 306 306 305
341 341 342 343 342 341 339 336 335 337 333 323 323 321 314 313 313 313 319 318 313 314 315 312 315 323 324 324 327 327 329 331 331 333 333 333 333 334 334 334 334 333 333 332 332 332 330 328 326 325 327 328 328 329 328 327 326 327 327 326 328 331 331 330 331 332 334 331 329 328 321 315 310 309 309 307 307 307 306 306 306 305 305 305 305
339 339 340 340 340 340 341 340 336 337 335 327 326 325 315 312 312 312 318 319 316 316 317 313 314 321 324 325 326 326 328 329 329 331 333 334 333 334 334 333 334 333 332 332 331 332 331 330 329 328 327 328 328 331 332 330 328 327 327 327 331 333 330 329 331 333 333 333 332 330 328 322 317 315 313 310 308 307 307 306 306 306 305 305 305
340 339 337 338 338 339 340 341 339 336 335 330 329 327 316 312 313 312 314 316 317 317 317 315 314 317 319 321 323 325 326 327 327 328 330 332 333 332 332 333 333 332 332 332 331 330 330 329 329 329 329 329 330 334 334 334 332 328 327 329 334 333 328 330 332 334 334 333 332 332 331 328 324 320 316 314 311 309 309 308 307 306 306 305 305
337 337 337 337 338 338 339 340 340 338 336 331 329 326 318 313 312 313 315 318 319 317 318 316 314 316 318 318 319 322 323 325 326 324 326 328 330 329 328 330 330 329 329 330 332 329 328 329 328 327 329 331 332 334 333 334 333 330 330 332 334 332 329 332 333 334 335 334 333 333 332 330 329 325 321 318 315 313 310 309 309 308 307 306 306
335 336 337 336 334 336 337 337 338 338 338 334 331 329 323 317 312 313 315 320 323 322 322 320 318 318 321 323 321 321 319 322 324 320 321 322 326 327 325 325 326 329 326 327 332 328 325 328 328 326 329 333 331 329 327 329 331 331 332 332 332 331 331 334 333 333 335 334 332 332 332 331 331 330 326 321 317 316 313 310 309 308 309 308 307
336 335 336 334 331 333 335 335 335 336 337 336 333 332 329 324 319 317 314 318 324 325 325 325 324 320 322 327 324 321 317 317 319 315 316 317 321 324 324 324 323 326 325 323 329 327 327 331 330 328 330 332 329 327 326 326 330 332 332 332 331 331 332 335 334 334 335 335 333 332 333 332 332 331 330 326 319 315 315 312 309 308 309 309 309
334 332 332 332 330 332 334 334 334 333 334 334 333 334 333 331 329 327 321 319 323 325 326 327 328 325 324 327 324 324 322 316 314 312 314 316 318 319 323 325 321 325 324 319 325 324 326 331 329 328 328 330 329 328 330 329 329 331 332 331 331 332 332 335 336 334 335 336 334 332 333 333 332 332 331 329 323 317 314 312 309 308 308 309 310
329 328 327 329 328 330 332 334 335 333 332 330 329 333 336 336 336 335 331 327 327 326 327 327 329 330 327 326 324 326 327 322 318 314 313 314 317 318 320 323 320 325 324 316 321 321 319 324 323 324 325 325 326 326 330 332 330 328 329 330 331 331 331 333 334 334 335 337 336 333 333 332 332 332 331 330 328 324 319 316 312 310 308 307 308
324 325 324 324 325 326 327 331 335 335 334 329 329 333 335 336 338 337 336 336 335 333 332 332 331 332 330 329 329 329 330 328 325 322 319 315 315 317 317 319 319 321 323 316 316 316 314 316 314 319 323 322 324 323 323 327 328 326 326 329 331 330 330 332 334 336 336 336 336 334 332 332 332 332 331 330 329 328 326 325 322 319 316 314 311
323 323 323 322 321 322 322 323 328 332 334 333 332 333 332 335 334 331 331 334 335 334 334 334 333 333 333 333 333 333 332 331 330 329 329 325 319 317 314 316 318 317 319 317 314 312 312 313 312 315 320 322 323 319 317 322 324 324 324 326 329 331 332 332 334 336 337 337 336 335 332 332 332 332 332 331 330 330 330 330 329 328 326 323 321
325 323 321 321 321 321 321 319 322 327 329 331 332 331 329 329 327 323 325 328 329 327 327 329 329 331 333 335 335 334 334 333 334 334 334 334 330 327 320 315 316 317 316 315 314 313 312 313 312 313 315 318 319 314 312 317 319 322 325 325 328 331 333 334 334 336 337 337 336 336 334 331 331 332 332 331 330 331 332 331 331 330 329 328 327
327 325 322 319 321 323 322 319 319 321 323 325 327 326 324 321 320 320 322 325 326 324 322 326 329 329 330 333 334 333 334 335 336 337 335 335 335 334 332 325 320 319 317 314 313 314 313 312 313 312 311 312 313 311 311 312 313 317 323 326 329 329 332 333 334 335 336 336 335 336 335 331 330 331 332 332 331 331 331 332 331 331 330 330 330
329 329 327 320 321 324 322 319 319 318 318 319 320 321 319 317 318 319 319 319 320 320 320 324 327 326 325 326 328 329 331 333 335 338 336 335 335 333 334 333 330 326 323 318 315 315 313 312 312 312 312 311 312 312 311 311 311 312 316 321 326 327 328 331 332 333 333 334 334 334 336 335 332 331 331 331 331 332 332 332 332 332 331 331 331
326 328 328 321 322 325 322 321 320 317 317 317 317 317 317 316 316 316 316 316 316 316 317 322 322 321 321 322 324 324 326 328 330 333 334 334 335 334 332 332 333 333 331 329 327 325 322 318 315 315 314 312 313 314 312 311 313 314 315 316 319 323 324 326 329 330 331 332 332 332 333 335 335 333 332 332 331 331 331 332 332 332 332 332 332
325 324 324 320 322 324 323 325 323 317 316 317 317 316 316 316 316 315 315 315 315 315 317 320 321 318 317 319 322 324 325 324 326 330 332 333 334 335 334 332 332 333 334 334 334 334 333 330 327 324 320 315 314 314 313 312 313 317 320 317 314 317 318 322 325 327 329 329 330 331 330 330 332 333 331 332 333 331 330 331 332 332 332 332 332
330 328 327 325 326 327 328 331 330 325 321 319 319 319 318 317 317 317 318 317 316 318 318 319 321 322 321 319 320 324 327 327 327 329 330 331 331 332 334 334 333 332 333 334 334 334 336 335 334 332 330 327 322 318 317 315 312 316 321 318 314 314 315 318 322 324 327 329 330 330 329 327 327 327 326 329 332 332 330 330 331 331 331 331 330
328 326 323 322 323 324 323 326 328 328 328 326 326 328 328 327 325 324 324 324 322 323 324 324 326 329 329 328 327 330 332 330 329 330 330 330 330 330 330 333 334 333 331 332 332 334 335 335 335 335 334 333 330 328 325 323 319 320 322 318 314 313 313 315 317 320 323 326 329 329 329 328 326 324 322 323 328 331 330 328 329 330 330 329 328
319 317 316 316 316 315 315 315 316 318 320 321 322 325 327 327 327 325 324 325 325 325 326 329 331 331 332 333 333 334 334 334 333 332 332 331 329 327 327 329 333 334 333 331 331 332 333 333 334 335 335 334 333 331 329 329 329 328 327 325 321 315 313 314 313 316 319 321 324 326 327 327 328 327 320 318 323 327 328 328 327 328 328 327 326
315 315 315 315 315 314 314 314 313 314 314 314 314 315 315 316 317 317 317 318 319 320 321 324 327 329 331 333 333 334 335 335 335 334 333 333 331 328 328 330 332 333 334 333 331 331 332 331 329 329 331 332 332 329 327 328 331 331 329 327 326 321 318 318 314 314 317 320 322 322 324 325 327 329 322 315 319 322 324 328 328 326 327 327 326
317 316 315 314 313 313 313 312 312 312 312 312 312 312 313 313 313 313 313 314 314 315 315 316 320 323 326 328 330 332 333 334 335 334 334 334 333 331 331 332 332 332 334 333 332 332 333 333 331 329 329 331 332 330 327 328 331 332 331 328 327 324 322 322 319 319 320 322 324 324 324 325 325 330 328 316 314 320 322 324 327 327 326 327 327
316 314 313 311 310 310 309 309 309 309 309 308 309 309 310 310 311 312 312 313 313 313 313 314 315 317 319 322 325 327 330 332 332 333 333 334 334 334 334 333 332 332 333 333 332 333 333 334 334 333 332 331 332 332 331 331 331 332 332 332 331 329 326 324 325 327 328 326 326 326 327 327 325 328 331 323 316 321 324 322 323 325 326 326 328
312 311 310 309 309 308 307 307 307 307 307 307 307 307 307 308 308 309 310 311 312 312 313 313 313 314 314 317 320 323 325 328 330 331 332 332 333 334 335 334 332 332 332 332 332 333 334 335 336 335 334 334 334 333 332 331 332 331 332 333 333 333 332 331 331 332 332 330 329 328 328 329 327 326 330 330 325 325 328 327 323 321 322 325 328
310 309 308 308 308 307 307 306 306 306 306 306 306 306 306 306 306 307 308 308 310 310 311 312 312 313 313 314 316 318 321 324 327 329 331 332 334 335 335 334 333 333 333 332 332 333 334 335 336 335 335 336 335 334 333 332 331 331 333 334 333 333 333 334 335 334 334 333 331 329 329 329 329 327 328 331 331 329 329 330 329 325 321 322 326
309 308 308 308 307 307 307 306 306 306 306 306 306 306 306 306 305 306 306 307 308 308 309 310 311 312 313 313 314 315 316 319 322 325 328 331 333 334 334 334 334 334 334 332 331 333 332 333 336 335 335 337 336 335 335 334 331 329 330 334 335 334 334 333 335 336 336 335 332 331 331 329 329 329 328 329 331 332 331 331 332 331 324 322 325
309 309 309 308 308 308 308 308 307 307 307 307 307 307 306 306 306 305 305 305 306 306 307 308 309 310 310 311 311 312 313 314 316 319 322 325 328 331 332 333 334 334 334 333 332 332 331 332 335 335 334 335 335 335 336 336 334 330 326 328 333 335 336 335 335 336 336 335 334 332 332 331 330 330 329 330 331 331 332 332 333 332 325 322 325
310 310 309 309 309 308 308 308 308 308 308 308 308 308 307 307 306 306 305 305 304 304 305 306 307 307 308 309 309 310 310 311 313 313 315 318 322 326 328 329 331 333 334 334 333 332 331 331 333 334 333 334 335 334 335 337 336 334 330 326 327 331 335 337 336 336 336 336 335 334 333 333 332 332 331 331 332 332 333 334 334 333 330 325 325
311 310 309 309 309 309 309 309 309 309 309 308 308 308 308 308 307 307 306 305 304 304 304 304 305 306 307 308 309 309 310 310 310 311 312 313 315 319 323 325 327 329 332 333 334 333 332 331 332 332 333 334 335 334 336 337 335 336 336 332 328 327 330 335 336 336 337 337 336 335 335 335 334 334 334 333 333 333 334 335 334 334 334 332 330
311 310 310 309 309 309 309 309 309 309 309 309 309 309 309 308 308 307 307 306 304 303 303 303 304 305 306 307 308 309 309 309 310 310 310 311 313 314 316 320 323 325 327 329 332 333 333 332 331 331 332 333 333 334 336 337 335 335 337 337 335 331 330 334 336 336 337 337 337 336 336 336 335 335 335 334 334 334 334 335 335 334 334 335 334
312 311 310 310 310 310 310 310 310 310 310 309 309 309 309 309 308 308 307 306 304 303 302 302 303 303 304 305 306 307 308 308 309 309 310 310 311 312 314 316 318 321 324 326 328 330 332 332 331 331 332 332 333 334 334 335 335 335 335 336 337 336 334 335 335 336 336 337 337 336 336 336 337 337 336 336 336 335 335 335 335 335 334 334 335
312 311 311 310 310 310 310 310 310 310 310 309 309 309 309 309 308 307 306 305 303 302 301 302 302 303 303 304 304 305 306 307 308 308 309 310 310 310 312 314 315 316 319 323 326 327 329 330 331 332 332 332 333 333 331 332 334 334 334 335 335 337 338 336 336 336 337 337 336 336 336 335 335 336 337 337 337 336 336 335 335 336 336 335 335
Wind_Speed
12 13 14 19 19 18 18 17 17 15 15 14 15 15 15 15 16 17 18 19 19 19 17 15 14 11 10 9 8 7 6 7 9 12 13 14 15 15 15 15 14 13 12 12 11 10 9 8 9 10 10 11 9 11 16 16 15 15 14 15 14 15 15 15 15 15 15 14 13 12 11 9 9 10 10 11 13 14 14 15 14 14 13 14 13
14 14 15 19 19 19 18 17 17 15 15 15 16 16 16 16 16 18 18 19 19 18 17 15 13 11 10 9 7 6 6 8 10 13 14 15 15 15 15 14 13 13 12 11 10 10 9 9 10 10 10 10 8 12 17 16 15 15 15 14 14 15 15 15 14 14 14 13 12 10 9 8 9 10 11 11 12 13 14 15 14 13 13 13 13
16 14 15 20 19 19 18 17 17 16 16 16 16 16 16 16 17 18 18 18 19 18 17 15 13 12 10 9 7 6 6 8 11 13 15 15 15 15 15 14 13 13 12 11 10 10 10 9 10 9 9 8 7 13 17 17 16 15 15 14 14 14 14 14 13 13 13 12 11 8 6 6 8 10 10 11 12 13 14 14 14 13 13 13 12
17 14 15 20 19 19 18 17 17 16 16 16 16 16 16 17 17 17 18 18 18 18 16 15 13 12 11 9 8 6 7 9 12 14 15 15 15 15 15 14 13 12 11 11 10 10 9 9 8 7 7 7 9 14 17 17 17 15 15 14 13 13 13 13 13 12 12 11 11 10 7 6 8 10 10 11 12 12 14 13 13 12 12 12 12
17 13 16 21 20 19 19 18 17 16 16 16 16 16 17 17 17 17 18 18 17 17 16 14 13 12 11 9 8 7 8 10 12 14 14 15 15 16 15 14 12 12 11 11 10 9 9 8 8 7 7 9 13 17 17 17 16 16 15 14 13 12 12 12 12 12 12 10 11 12 9 7 8 10 10 11 12 12 13 13 12 11 12 13 13
17 13 17 21 20 20 19 18 18 17 17 17 17 17 17 17 16 17 17 17 16 16 16 14 13 12 11 10 9 9 9 11 13 14 15 15 15 15 15 14 13 12 11 11 10 9 10 11 11 11 11 13 16 18 17 16 15 15 14 13 12 12 11 11 11 11 11 9 11 12 10 7 6 9 10 10 11 12 13 12 12 12 14 14 14
16 13 17 21 19 21 20 18 18 17 17 17 17 17 18 18 18 18 17 16 16 16 16 15 14 12 11 10 10 10 10 12 14 16 15 15 16 15 14 13 13 12 11 11 11 13 15 16 16 15 16 16 16 17 16 15 14 13 13 12 11 11 10 11 11 11 11 8 9 10 9 7 4 6 10 10 11 11 12 12 13 14 15 15 15
16 14 16 22 19 20 21 18 19 18 18 18 18 18 18 18 18 18 17 16 16 16 16 15 14 12 11 11 11 11 12 13 15 16 16 16 16 15 14 14 13 12 12 13 15 16 17 17 16 15 16 16 16 16 15 14 12 12 11 11 10 10 10 10 10 10 10 9 8 9 9 7 3 4 8 10 10 11 13 13 13 14 15 15 15
17 16 16 22 20 20 22 19 19 18 18 18 18 19 18 19 18 17 17 16 16 15 15 15 14 13 12 12 12 12 12 14 16 17 17 17 17 16 15 14 13 13 14 16 17 16 15 15 14 13 13 14 15 16 15 13 12 11 11 10 9 9 9 9 9 9 9 8 9 8 9 8 3 3 8 10 11 12 14 13 13 14 14 14 14
17 18 16 19 21 22 23 21 20 19 19 19 19 19 19 19 18 18 17 16 16 15 14 14 14 13 12 12 12 12 13 14 16 16 16 17 17 15 14 14 14 15 16 18 17 15 14 13 12 12 12 12 12 12 12 12 12 11 11 11 9 9 9 9 10 9 9 8 8 8 11 11 5 4 8 11 11 12 14 13 13 13 14 13 13
18 18 15 16 21 24 23 23 21 20 19 19 20 20 20 19 18 18 17 17 16 15 14 14 14 13 12 13 13 12 13 15 16 16 16 16 16 14 13 14 15 16 17 18 16 15 13 12 11 10 10 10 10 10 11 11 11 12 12 12 11 11 11 12 11 8 9 8 7 7 8 9 5 7 9 11 12 12 13 12 13 13 13 13 12
19 18 16 14 20 25 24 23 21 20 20 20 20 20 19 19 18 17 17 17 16 14 13 14 14 13 13 13 13 13 14 15 16 16 16 15 15 13 13 13 15 16 17 17 16 15 14 12 11 10 10 11 11 11 11 12 11 12 13 13 12 12 11 14 12 6 9 8 7 8 8 7 5 8 10 11 12 11 12 12 12 12 12 12 12
20 18 18 16 19 24 23 22 21 20 21 21 21 20 20 19 18 17 16 15 15 14 13 14 14 13 13 13 13 13 14 15 16 16 15 14 13 13 13 13 14 16 16 16 16 15 14 12 11 10 11 11 12 12 12 12 12 12 13 13 12 13 12 14 12 8 9 8 8 8 8 7 5 7 9 10 11 11 11 11 11 11 11 11 11
20 18 20 19 19 22 22 22 22 21 21 22 22 22 21 19 18 17 15 15 14 14 14 15 14 13 13 13 14 14 14 15 14 14 13 12 12 12 13 13 14 15 15 14 15 15 13 12 10 10 11 12 12 12 12 12 11 11 12 13 12 13 13 14 12 9 10 9 9 8 5 5 5 6 7 9 10 11 11 10 10 10 10 10 10
19 19 21 21 21 23 23 22 22 21 21 21 22 23 22 19 18 17 16 15 14 14 14 14 13 13 13 14 14 14 14 13 12 12 11 11 11 11 12 13 13 14 13 13 13 13 12 11 10 10 12 12 12 12 12 10 10 10 11 12 12 12 13 13 11 9 10 10 9 8 5 3 4 4 4 7 9 10 10 9 9 9 9 8 8
19 20 22 22 22 23 24 23 22 21 20 20 22 23 23 21 19 18 16 14 13 14 14 14 14 14 14 14 14 14 14 13 12 12 12 11 10 10 11 11 12 12 12 12 12 11 10 10 10 10 11 12 11 11 10 10 9 10 10 11 12 12 13 13 10 8 9 9 9 8 5 4 4 3 3 4 6 7 8 8 7 7 7 7 7
19 20 22 22 22 23 23 24 22 21 20 20 20 21 22 22 21 19 16 15 13 13 14 14 14 14 14 14 14 13 14 14 14 13 13 12 11 10 10 10 10 11 11 11 11 11 9 9 9 9 10 10 10 10 9 10 9 9 9 10 11 11 13 13 9 8 9 8 9 9 5 4 4 3 4 3 4 4 5 7 6 5 5 5 6
20 21 21 21 22 21 21 23 22 21 21 22 21 19 21 22 21 19 17 15 13 13 14 14 14 14 14 14 13 13 15 15 15 14 14 13 12 11 10 9 9 9 10 11 11 11 10 9 8 8 9 9 8 8 8 9 9 9 9 8 10 10 11 13 9 6 8 9 9 9 6 4 5 4 4 4 4 3 3 5 5 4 4 4 5
21 23 22 22 22 20 21 22 22 23 23 24 24 20 20 22 22 20 18 15 14 14 14 14 14 14 14 14 13 13 14 16 15 15 14 13 13 12 12 11 9 9 9 10 10 11 10 9 8 8 8 8 8 7 7 7 7 7 7 7 8 9 10 12 8 6 7 8 8 7 5 4 5 5 4 4 4 4 4 4 4 3 4 4 4
21 23 22 24 24 23 25 24 23 26 25 24 25 23 22 23 22 21 19 18 15 15 14 14 14 14 15 15 14 13 13 14 14 14 14 14 14 13 13 12 10 10 9 9 10 10 10 9 9 8 8 8 7 6 6 6 6 6 6 6 6 7 8 8 7 7 6 6 7 6 4 5 5 5 5 4 4 5 4 3 3 3 4 4 4
16 20 22 23 24 25 27 25 22 25 26 26 26 24 25 25 24 22 21 20 19 17 15 15 15 14 15 15 14 13 12 13 13 14 14 14 13 13 13 11 11 11 9 9 10 9 9 9 9 9 8 7 6 5 4 4 4 4 4 4 4 5 6 6 6 7 5 4 6 4 3 5 5 6 5 5 5 5 5 4 4 3 4 4 4
2 7 18 21 21 23 26 24 22 23 24 26 25 23 26 26 25 24 22 21 20 19 18 17 16 15 15 15 14 13 13 13 13 13 14 14 14 13 12 12 11 10 9 9 10 9 9 9 9 9 8 6 4 4 4 4 4 4 4 3 4 5 3 3 4 6 5 4 5 3 3 4 4 5 5 4 4 4 4 4 4 4 4 4 4
7 4 8 17 17 17 20 22 23 24 23 26 25 23 26 28 27 26 24 23 22 21 20 19 18 16 15 15 14 14 14 13 14 14 13 14 14 13 12 12 12 10 10 11 10 10 10 9 9 9 8 6 4 4 4 4 5 4 4 4 4 5 4 2 3 4 4 4 4 3 3 3 3 3 3 3 3 3 4 4 4 4 4 4 4
6 4 3 12 19 18 18 18 21 23 23 25 23 24 28 29 29 28 27 24 23 23 21 21 19 18 17 17 16 14 14 14 14 15 14 13 13 13 13 13 12 11 11 10 10 11 10 9 9 8 7 6 6 7 6 5 5 5 5 5 5 6 4 3 4 4 4 4 4 3 3 3 3 2 2 2 2 2 3 3 4 4 4 5 5
5 5 2 8 17 20 21 17 17 21 22 23 22 25 30 31 30 29 27 25 24 23 22 21 21 19 18 18 17 16 16 16 14 15 15 14 13 13 14 13 12 12 11 11 10 10 10 10 8 7 7 7 8 8 8 8 8 7 6 6 7 7 5 4 5 5 5 4 4 4 4 3 3 3 2 1 2 2 3 3 3 3 4 4 5
2 4 3 6 8 11 21 19 18 21 20 21 21 21 25 27 29 29 27 25 24 23 21 21 21 20 19 18 18 17 18 18 16 17 17 16 15 14 14 14 14 13 13 13 12 11 11 11 9 8 9 9 9 10 10 10 9 7 8 8 9 8 6 6 6 6 5 5 5 4 4 4 3 3 2 1 1 2 3 3 3 3 4 4 4
1 3 4 5 6 6 15 16 17 23 19 18 18 17 19 20 23 25 26 24 21 21 20 19 19 20 21 19 19 19 20 20 18 18 18 17 17 16 15 15 16 15 15 15 15 14 13 12 12 11 11 10 10 10 10 10 9 8 8 8 9 8 8 7 7 7 6 6 5 5 5 4 4 3 3 2 1 2 3 4 4 4 4 4 4
7 7 8 5 4 3 9 8 12 23 19 13 14 14 15 16 16 17 20 20 18 18 18 17 16 18 20 20 20 19 19 20 20 20 19 17 17 17 17 16 17 16 16 16 15 16 15 14 15 13 12 12 12 11 9 8 8 8 8 8 8 8 8 8 8 8 7 6 6 6 6 5 4 4 4 3 3 2 2 3 4 5 5 5 5
14 14 16 15 12 8 2 3 11 21 17 13 15 14 12 12 13 14 15 16 17 17 17 17 15 16 18 20 21 19 18 20 21 21 20 20 18 18 17 18 17 16 16 16 15 16 16 16 16 15 14 14 13 12 11 10 9 8 8 7 7 7 8 8 8 8 7 7 7 6 6 5 5 5 4 4 4 3 3 3 4 4 5 5 5
18 18 22 22 20 17 14 8 6 13 14 15 15 13 11 8 7 10 11 12 14 16 17 17 16 16 19 21 22 20 20 21 22 21 21 21 20 20 19 19 18 18 17 17 17 17 16 16 16 15 14 14 13 13 13 12 11 9 8 8 7 7 8 8 8 8 8 8 8 8 7 6 5 5 5 5 5 5 4 4 4 4 4 4 5
18 19 21 22 22 21 21 19 10 6 8 13 13 12 11 7 4 4 5 8 7 8 11 13 15 18 19 21 22 22 22 22 23 22 21 21 22 22 22 22 20 20 19 18 19 18 17 16 16 15 14 14 14 14 13 13 13 11 10 9 9 8 8 8 8 8 8 8 9 9 7 6 6 6 6 6 6 6 5 4 4 4 4 4 4
16 18 19 20 21 21 22 22 17 14 10 7 6 7 6 3 10 13 10 6 5 7 9 9 13 18 18 18 20 22 22 21 22 22 21 22 22 22 23 24 23 22 21 20 20 20 19 18 17 17 17 15 15 16 15 14 14 12 11 10 10 10 9 9 8 9 9 9 10 9 8 7 7 6 6 7 7 7 6 5 5 5 5 5 5
15 15 17 18 20 22 21 21 20 18 15 12 8 6 9 14 14 13 16 10 3 6 8 11 15 17 15 15 17 19 21 20 20 20 21 21 21 21 22 23 24 24 23 23 22 20 20 20 20 20 19 18 17 17 16 16 15 14 13 11 11 11 10 10 10 9 10 10 10 10 9 8 7 7 7 7 7 7 7 6 5 5 5 5 5
14 13 12 16 19 20 20 18 17 17 15 13 11 10 13 17 14 11 16 17 11 9 7 9 10 11 13 15 17 18 20 20 18 17 19 20 20 21 21 21 23 24 24 24 23 22 22 22 21 21 21 20 19 19 19 17 17 16 15 14 13 12 12 12 12 11 11 10 11 11 11 10 9 8 8 8 8 8 7 7 6 6 6 6 5
13 12 12 15 17 16 16 16 14 12 13 13 10 8 9 10 10 10 12 13 11 9 6 7 7 9 12 15 18 18 19 20 19 19 20 19 18 19 19 20 21 23 24 24 23 22 22 22 23 22 22 22 21 21 21 20 19 18 17 17 16 15 14 14 14 14 13 12 13 12 12 12 11 11 10 10 9 9 8 7 7 7 7 6 6
12 12 13 13 14 13 13 16 16 11 10 10 10 9 6 4 3 5 6 6 5 3 4 8 9 8 11 14 17 19 19 19 21 21 21 20 18 17 17 18 20 21 23 24 24 22 21 21 22 22 22 22 22 22 22 22 21 19 18 19 19 18 17 16 16 15 15 15 15 14 15 14 14 14 13 12 12 11 10 9 9 8 8 8 7
11 11 10 9 10 10 11 13 15 13 12 12 13 13 11 9 7 4 5 4 7 11 11 11 14 15 16 16 17 20 21 21 21 22 22 22 21 19 17 17 18 21 22 23 25 25 24 22 21 21 21 21 22 22 21 22 23 21 21 22 21 21 21 19 18 17 17 16 16 16 16 17 17 17 16 15 14 14 12 11 11 10 10 9 9
12 11 10 9 10 10 9 9 8 10 11 11 11 13 13 13 13 12 15 15 15 18 18 16 18 20 21 22 22 22 22 22 22 22 23 22 22 22 21 20 19 21 22 22 23 23 22 21 21 20 20 20 21 21 21 21 22 21 21 23 24 24 24 23 22 20 19 18 18 18 18 18 18 19 19 17 17 16 15 14 13 14 13 12 11
13 12 11 11 12 11 9 8 7 7 7 6 6 6 6 8 10 11 13 15 16 17 18 18 20 19 19 20 22 21 21 21 22 23 23 22 21 22 25 25 23 21 22 22 23 22 21 22 22 21 20 20 20 20 21 20 20 20 19 20 23 26 26 26 26 25 24 22 20 20 19 19 19 20 21 21 19 19 18 17 16 17 16 14 13
14 13 13 12 11 11 9 7 7 6 5 5 4 3 3 4 6 8 9 10 12 13 14 15 17 17 17 16 17 19 20 20 22 23 24 24 23 23 26 28 26 23 23 25 25 24 24 24 26 25 21 19 19 21 23 21 19 20 21 20 22 25 26 26 28 28 27 24 23 22 21 20 19 21 23 23 22 22 21 19 19 19 18 17 17
14 12 11 10 10 9 8 7 6 5 4 4 3 4 4 4 6 7 8 9 11 12 13 13 13 14 15 14 14 16 18 20 21 22 24 26 26 26 26 27 26 24 25 27 27 26 25 24 24 25 23 20 19 21 22 21 19 19 20 21 23 25 25 25 28 27 26 24 23 23 23 22 21 21 23 26 25 24 24 22 22 22 21 20 19
12 10 10 10 10 9 9 9 8 6 5 5 4 2 2 3 5 6 7 9 10 11 11 12 13 13 13 14 14 15 15 18 20 21 23 24 25 27 27 27 26 26 26 27 27 27 26 24 21 21 22 20 20 20 21 20 20 20 18 17 19 22 23 25 25 25 24 23 23 23 23 23 23 22 22 25 27 25 25 25 25 25 24 22 22
11 11 11 11 11 11 11 11 10 9 9 8 7 5 4 2 2 4 6 8 10 12 13 14 15 14 14 14 15 15 14 15 17 20 22 23 23 25 27 28 27 27 29 29 28 26 25 24 23 23 21 19 20 21 23 22 21 19 17 17 17 16 18 21 22 22 23 23 22 22 23 24 24 23 22 23 25 25 24 24 26 28 27 25 25
11 13 13 13 13 12 11 11 11 11 11 10 10 9 7 6 4 4 6 8 10 12 14 16 17 17 17 16 16 17 16 16 17 19 21 22 22 23 24 26 27 28 29 29 28 28 26 23 25 26 22 21 21 21 22 24 22 20 19 18 16 15 16 16 17 18 19 21 22 22 22 22 22 23 23 23 23 24 23 24 25 27 28 27 26
12 13 13 13 12 11 10 10 11 11 11 11 11 11 10 8 7 6 6 7 9 11 14 16 18 19 20 20 20 20 19 18 18 18 20 21 21 22 22 24 26 26 27 28 29 30 28 24 25 27 24 24 24 21 20 22 23 24 23 19 15 15 16 15 13 14 14 17 19 21 21 20 20 21 22 23 23 22 22 23 24 26 29 28 27
12 12 11 11 10 10 10 10 10 11 11 11 11 11 11 11 10 8 7 7 9 10 12 14 16 18 20 20 21 22 22 22 21 20 20 20 21 22 23 25 26 25 26 29 30 30 28 26 28 28 26 25 25 22 20 21 22 24 25 25 21 16 13 12 12 11 12 14 15 17 19 19 19 19 20 21 22 21 21 22 22 25 29 28 27
10 9 9 9 9 9 9 9 10 10 10 11 11 12 13 13 13 12 11 9 9 10 12 13 14 16 18 19 20 20 20 22 23 23 23 22 21 21 22 24 26 25 25 27 30 32 31 30 30 27 24 26 26 23 22 21 21 21 22 27 28 24 17 14 13 11 10 12 13 14 16 17 18 19 19 20 20 20 21 20 20 22 24 24 24
9 7 7 8 8 8 9 9 9 10 11 12 13 14 15 15 16 16 15 13 11 10 11 13 14 15 17 18 19 20 19 19 21 22 24 24 24 23 22 22 24 25 26 27 28 31 33 33 31 28 27 29 29 25 25 24 22 21 21 23 28 30 27 23 19 16 13 12 13 14 15 16 17 18 19 19 19 20 21 21 20 20 21 22 22
7 6 6 7 8 8 9 10 10 11 12 14 15 16 17 18 18 19 18 17 15 12 11 12 13 15 16 18 19 20 20 20 20 20 22 24 26 26 24 23 22 23 25 27 27 29 30 31 32 32 30 31 30 26 24 25 24 23 22 22 23 26 29 27 25 24 21 18 16 15 15 16 17 18 20 20 20 20 20 22 22 20 20 21 23
5 5 5 5 6 7 8 9 10 12 13 15 17 18 19 20 21 21 20 19 17 14 12 11 12 13 15 16 18 19 21 21 21 20 21 22 24 27 26 26 24 23 24 25 26 27 29 31 32 32 31 31 31 29 26 25 26 26 24 22 20 21 25 26 26 26 25 22 20 18 17 17 17 19 20 20 20 20 21 22 22 22 21 22 23
5 5 5 4 5 5 6 7 9 10 12 14 16 18 20 21 22 23 22 20 18 15 13 12 12 12 13 14 16 17 19 22 22 22 21 21 22 24 26 28 27 26 26 25 24 25 27 30 31 32 32 32 31 32 31 31 30 31 30 26 22 21 22 24 25 25 24 23 22 21 20 19 19 19 19 19 19 19 20 21 22 22 23 22 22
Wind_Direction
165 169 184 179 174 173 172 175 176 177 177 176 177 176 176 175 173 172 171 170 173 176 176 175 170 162 151 146 142 146 151 150 145 141 142 145 149 146 146 150 149 149 147 146 144 141 138 136 135 134 132 127 117 117 120 115 113 112 110 111 110 110 108 106 104 103 102 102 101 98 97 90 84 83 84 87 91 93 94 93 90 90 89 88 89
167 169 181 177 175 173 173 176 176 178 175 174 175 175 176 174 173 172 172 172 176 178 177 175 169 163 154 150 147 155 159 154 149 144 145 147 150 149 151 153 154 158 155 150 147 143 141 140 141 143 140 136 125 125 125 120 120 118 114 114 113 113 110 108 107 106 105 103 101 102 102 90 83 84 85 88 92 92 92 92 92 93 91 90 91
165 167 177 175 176 174 174 177 177 179 175 173 173 174 174 172 173 173 173 173 178 179 177 174 168 165 160 157 157 168 169 158 153 148 149 151 153 154 156 156 159 162 157 152 148 144 145 146 149 152 148 147 137 132 130 126 125 123 120 117 115 115 113 112 110 109 105 100 96 91 90 89 90 86 86 90 91 92 92 93 93 92 92 92 91
164 165 177 174 175 175 175 178 178 180 176 174 174 173 173 172 173 173 175 173 178 181 179 175 171 169 166 165 167 178 173 163 158 154 153 154 156 158 160 160 163 163 160 158 153 151 153 156 159 158 153 150 141 138 133 128 128 126 124 121 120 117 115 115 114 113 105 100 93 83 75 81 95 92 89 93 93 93 94 94 93 91 93 94 94
162 162 176 174 174 177 177 179 180 181 177 176 175 174 173 173 173 175 177 174 177 183 183 179 176 175 171 172 175 184 176 167 163 158 155 155 159 161 163 165 168 166 165 165 162 163 162 160 157 151 148 139 135 138 133 130 131 130 128 126 125 122 122 122 119 115 109 105 95 88 79 69 86 96 94 94 96 96 96 95 94 94 96 97 97
157 158 172 173 174 179 180 180 181 183 179 178 177 174 175 176 176 179 180 176 177 183 188 186 182 180 178 179 180 185 175 169 165 159 156 156 160 162 165 168 170 169 169 172 171 164 152 142 134 127 125 124 129 133 130 131 133 132 132 130 130 127 128 127 123 119 119 111 91 87 83 72 73 96 100 98 100 99 99 98 97 99 99 97 94
157 155 169 174 174 180 181 182 184 184 183 181 179 178 179 179 178 180 180 180 180 184 191 191 188 185 182 183 183 182 173 171 164 159 158 157 161 163 165 167 169 169 170 171 162 147 136 129 120 114 113 115 123 128 129 130 131 132 131 130 132 131 133 131 125 128 128 110 88 88 90 89 72 94 106 105 105 105 103 102 104 104 100 98 94
160 154 167 177 176 181 182 184 185 185 185 184 182 182 181 179 178 179 180 184 185 187 192 193 192 188 185 185 183 178 175 171 161 158 160 159 160 160 160 162 165 165 161 155 145 137 130 124 117 112 110 112 118 122 123 123 127 132 135 136 136 136 138 135 131 134 125 108 100 97 92 92 81 104 115 112 111 113 111 108 108 106 101 98 95
162 158 167 179 179 180 182 185 187 187 186 185 183 183 181 179 179 181 182 185 187 188 191 194 194 190 185 184 182 179 175 167 158 159 161 160 159 158 160 160 161 156 150 144 137 132 128 125 123 122 119 117 117 117 116 113 118 126 137 142 145 148 146 147 144 135 117 112 115 109 108 100 88 127 124 120 116 118 116 111 110 106 102 99 96
163 163 165 178 184 181 182 185 187 188 186 185 184 183 182 180 181 181 182 185 187 188 189 193 194 191 185 182 182 180 173 164 159 161 163 163 162 162 162 160 155 149 146 139 133 130 128 129 131 133 130 129 127 123 118 114 115 118 128 130 136 141 140 142 129 120 115 119 125 132 137 123 123 155 133 124 117 119 119 115 115 110 105 100 98
164 167 165 175 188 182 182 185 186 186 185 185 185 185 183 180 181 181 181 185 186 186 188 191 193 190 185 183 184 179 171 163 161 165 168 168 167 165 162 158 151 148 145 137 134 134 134 135 136 135 133 136 132 127 123 120 116 116 122 123 124 124 131 125 105 103 114 116 125 129 132 122 140 158 138 126 118 119 119 118 118 112 108 105 101
165 170 170 180 188 183 184 185 185 183 183 185 185 183 182 181 180 181 182 184 187 187 188 191 190 188 185 184 183 176 169 165 165 169 170 170 171 168 161 156 152 150 147 141 140 141 142 143 140 134 131 130 126 124 122 120 112 110 118 121 119 117 124 118 104 107 111 113 129 118 111 119 155 150 137 128 122 123 121 123 121 112 109 107 105
173 171 175 188 190 185 184 184 184 180 180 182 183 183 182 183 180 181 184 184 188 189 190 190 188 186 184 184 179 172 169 166 165 166 167 168 171 168 161 158 157 155 151 148 147 147 148 147 143 134 127 125 124 124 122 118 111 107 112 115 114 112 114 112 109 113 110 114 126 122 130 143 156 139 134 131 129 132 129 128 122 116 112 108 106
184 177 179 190 190 186 185 185 184 179 177 177 181 184 182 182 179 180 182 183 187 190 191 189 187 184 182 181 176 171 167 164 160 159 160 162 164 162 160 161 161 161 158 154 151 152 152 150 148 137 129 128 127 127 123 119 113 108 106 106 108 110 109 104 106 111 110 114 118 122 140 150 141 135 142 138 137 139 136 131 124 122 117 111 107
194 185 182 190 188 184 187 186 185 181 176 177 179 181 182 180 180 180 179 181 185 189 190 188 185 182 182 180 176 173 170 166 165 164 164 164 161 154 153 158 162 165 164 159 156 157 158 156 152 142 135 132 130 128 123 121 118 111 103 101 100 105 108 101 102 114 112 111 116 120 129 141 134 143 156 144 141 139 136 133 128 125 119 113 109
200 191 186 190 186 182 187 187 187 185 180 180 180 181 182 180 181 178 175 177 183 188 188 186 184 182 183 181 179 179 176 176 177 175 174 173 170 159 151 152 158 165 169 167 162 162 162 160 157 150 143 137 133 129 126 123 120 115 105 100 97 98 105 103 103 110 109 112 117 120 130 140 132 136 132 133 138 137 140 136 130 124 117 113 109
199 192 185 187 185 181 187 190 188 187 186 186 183 184 185 182 180 176 173 174 179 184 185 185 184 185 185 183 185 184 181 182 182 181 178 177 176 173 164 158 159 164 170 173 172 169 166 164 164 160 152 144 138 135 132 126 118 115 107 101 100 98 103 105 105 105 112 121 118 121 138 136 129 127 107 101 114 127 141 135 130 122 115 111 106
192 189 183 180 180 180 186 190 190 188 189 192 189 187 187 183 179 175 175 173 175 179 180 184 184 186 186 187 190 187 185 184 184 183 182 181 179 179 178 175 171 167 170 174 179 179 174 171 173 172 163 155 149 145 138 129 121 115 109 104 102 101 104 106 106 105 112 118 116 126 145 134 125 125 108 100 92 96 109 114 118 115 108 103 99
188 188 182 177 178 181 184 186 188 190 192 195 192 187 189 187 180 176 176 174 177 177 176 180 184 187 187 191 193 190 189 187 187 187 186 184 183 185 185 185 185 181 177 177 182 184 181 179 181 185 178 170 164 157 147 137 130 121 115 110 105 105 103 104 115 114 102 109 117 128 137 126 125 122 113 107 100 97 92 93 100 101 102 98 96
188 186 183 182 182 182 183 187 191 195 195 194 191 188 189 188 182 179 178 178 178 176 175 177 182 188 189 190 190 190 193 192 193 191 190 189 187 189 189 190 192 189 187 185 187 188 188 186 187 192 190 184 177 167 161 153 146 137 128 120 114 110 104 109 124 119 110 112 118 123 119 120 124 117 115 116 114 112 106 102 97 96 106 104 98
193 185 188 189 189 188 186 189 191 196 196 191 192 192 189 186 184 182 180 180 178 176 176 177 179 185 188 189 185 185 192 197 200 197 196 197 194 195 194 195 195 191 193 198 200 202 198 193 192 194 196 193 186 182 187 182 172 161 150 138 127 117 112 124 124 120 132 118 115 122 108 117 120 114 119 120 120 119 117 118 110 107 110 110 106
248 169 189 190 187 193 195 193 189 194 195 192 196 195 190 186 185 185 182 182 180 178 179 179 177 181 185 185 183 185 191 197 201 203 203 204 201 202 202 201 201 197 199 207 210 213 211 206 202 200 202 202 196 198 211 216 208 193 177 161 143 144 144 141 125 128 142 126 130 141 105 114 116 115 120 118 122 123 125 128 124 122 115 113 111
334 11 212 207 193 188 195 200 196 197 198 196 199 199 194 189 187 186 185 186 184 181 182 182 179 180 184 183 185 190 194 197 200 205 207 209 207 206 208 206 205 207 208 211 217 219 219 219 214 208 207 210 211 207 207 217 218 207 196 183 163 175 193 175 140 142 153 154 164 159 124 123 111 115 121 122 132 127 133 139 136 134 128 123 117
266 321 294 215 213 204 194 201 203 204 207 204 201 202 197 190 190 189 187 190 188 186 185 185 184 185 188 187 189 192 195 199 202 205 205 209 210 209 214 212 209 217 216 215 224 226 224 225 227 220 211 208 212 210 203 208 220 213 199 187 186 203 212 193 175 166 173 186 184 172 153 139 124 127 121 131 149 144 153 151 146 145 139 136 129
236 275 340 193 216 219 206 203 202 205 212 212 207 206 200 192 192 190 187 189 191 191 190 189 188 190 194 193 194 196 197 198 202 204 200 204 209 208 211 210 210 216 215 211 218 224 223 221 223 221 209 204 206 212 210 209 217 214 203 198 199 210 214 201 194 180 187 206 200 185 170 156 146 143 133 149 170 179 191 176 163 162 156 149 140
255 276 298 236 246 238 218 215 210 204 204 207 206 202 199 196 195 194 190 188 191 193 193 194 192 192 196 198 199 201 200 199 203 204 200 202 206 206 205 206 207 209 210 207 209 216 215 214 216 211 205 208 211 216 221 214 211 212 209 209 204 204 202 205 206 188 192 212 205 186 177 169 160 158 158 166 193 203 212 203 194 189 184 171 157
48 360 352 290 312 294 236 234 228 215 208 206 206 198 194 197 197 199 197 192 193 196 197 197 196 197 197 201 203 204 205 203 207 208 204 206 208 208 207 210 211 210 212 209 208 211 207 209 215 212 205 211 220 222 227 217 203 204 212 211 204 200 197 200 209 200 197 217 213 190 184 182 170 167 167 169 194 208 218 215 209 211 209 199 185
74 45 34 39 35 332 254 264 237 218 214 209 210 206 196 198 197 199 200 197 199 201 204 204 202 204 202 205 208 206 207 206 210 211 209 210 211 212 210 214 217 213 217 213 210 213 205 204 212 213 210 211 219 222 225 222 207 200 206 208 202 201 201 197 205 205 198 212 221 202 188 187 180 174 173 174 182 190 201 211 211 214 218 218 211
86 78 72 79 81 76 105 260 220 207 206 206 215 221 209 205 205 204 200 198 207 208 209 212 212 213 209 211 213 210 208 207 211 214 213 213 213 215 213 216 220 216 221 220 214 216 212 211 213 212 213 213 217 220 217 219 219 209 206 211 209 206 204 203 206 205 202 209 219 213 195 189 188 182 183 180 181 188 189 200 208 209 214 220 221
94 94 91 89 84 77 79 88 185 196 198 205 214 224 221 220 219 214 212 208 214 216 219 223 226 225 219 217 217 214 214 211 212 215 215 215 214 215 215 215 218 215 220 224 219 220 218 218 219 214 214 216 217 221 219 217 223 224 218 216 220 220 212 211 212 206 207 211 216 217 203 197 196 188 189 188 182 183 185 196 212 212 213 216 218
101 104 102 95 87 80 73 68 76 124 173 194 204 225 234 249 324 353 295 265 247 251 246 237 237 236 229 231 232 227 224 219 216 218 217 220 220 218 218 216 217 217 218 221 222 222 220 221 224 219 216 215 215 222 223 221 224 225 225 220 221 228 223 217 214 210 210 210 218 222 210 201 202 199 197 193 186 181 184 196 213 222 222 218 217
110 109 107 99 89 85 75 65 68 81 90 126 178 227 236 328 3 21 14 309 288 322 305 275 263 256 245 243 246 240 235 229 224 224 223 226 228 226 224 221 220 221 220 220 222 223 221 222 224 224 223 220 220 226 225 223 225 223 224 224 220 224 225 222 216 212 212 210 215 220 219 210 204 208 206 199 195 192 194 198 205 217 223 224 224
108 104 106 105 95 93 91 74 64 64 68 75 69 41 40 36 23 29 39 33 15 359 322 287 277 274 271 267 263 255 247 240 233 230 229 231 233 232 230 227 224 225 225 222 222 223 223 223 224 226 228 227 228 231 229 227 228 224 221 221 220 223 223 224 223 218 216 215 215 214 219 222 213 210 207 207 208 207 208 208 210 212 218 227 231
114 108 108 111 103 102 105 89 67 54 63 74 60 37 26 29 29 25 33 36 35 29 344 288 277 283 292 285 273 269 265 258 250 241 235 234 234 233 232 230 228 227 228 226 225 225 225 225 226 228 229 230 231 234 234 232 232 229 224 220 218 223 222 222 224 224 223 221 221 218 215 220 226 223 216 214 217 221 222 219 221 223 226 230 236
135 126 121 121 116 114 111 104 95 68 71 88 80 62 36 26 28 15 18 25 21 19 351 287 283 307 309 289 268 264 269 268 268 260 250 243 236 234 234 233 231 229 229 229 229 228 229 229 229 229 229 230 231 234 237 235 233 231 230 227 222 223 226 226 226 227 228 227 229 230 225 220 224 230 230 227 224 226 231 233 232 232 236 238 240
138 126 124 129 126 125 121 124 125 101 98 120 122 115 93 81 65 15 9 7 340 315 288 262 262 288 296 291 278 266 263 266 269 265 261 259 250 241 238 236 234 233 232 231 230 229 229 232 232 232 232 231 231 234 238 237 235 232 230 232 230 230 230 229 229 228 229 231 231 233 236 233 229 232 236 235 236 234 232 236 240 238 239 243 246
124 116 115 119 113 112 116 130 137 126 134 152 155 156 154 160 174 203 213 232 250 228 225 235 235 239 243 254 263 259 255 256 260 260 260 263 259 254 249 242 239 238 237 235 234 232 228 228 231 233 234 234 233 234 236 238 239 235 232 235 236 236 235 232 231 230 230 232 232 231 236 239 239 241 241 237 239 242 238 234 238 243 242 242 247
114 111 108 103 98 96 96 104 116 119 134 155 168 174 174 178 188 202 209 215 227 226 225 232 237 240 240 242 245 247 248 247 251 255 256 258 260 261 260 256 248 241 238 237 238 237 231 228 229 231 232 234 233 233 234 237 240 237 235 239 240 239 238 236 234 233 233 232 233 234 236 239 242 244 247 244 240 241 244 241 238 240 242 242 244
111 108 101 95 92 88 86 88 88 91 103 125 152 181 192 197 203 210 217 220 224 229 234 240 247 252 254 253 251 250 249 248 251 252 253 254 256 258 260 258 254 246 241 238 236 237 234 231 229 227 228 232 232 230 231 233 235 235 234 237 241 243 242 241 240 238 237 236 235 236 237 239 241 242 247 250 245 242 245 246 244 242 244 246 245
107 101 93 85 81 81 84 89 92 98 99 106 131 164 203 232 239 238 243 245 243 246 248 250 252 254 256 259 260 258 255 254 256 255 255 254 251 251 253 254 254 251 246 241 237 236 236 234 234 231 227 228 233 233 232 232 232 235 237 236 240 245 244 243 245 244 242 240 237 237 236 236 238 241 246 251 249 246 246 244 247 249 249 250 248
100 93 86 78 72 75 83 90 93 99 108 117 138 162 194 225 245 250 253 259 262 265 266 266 264 262 260 260 260 261 260 260 257 256 257 256 251 250 249 251 253 254 252 247 241 238 238 236 236 236 231 226 229 233 233 230 228 232 237 239 243 246 245 246 248 247 244 240 237 237 236 235 236 237 245 253 252 248 248 246 246 249 251 253 253
100 92 85 78 72 69 68 74 79 77 78 80 88 108 155 216 244 259 264 268 272 276 278 276 275 276 274 270 268 266 264 264 262 258 259 259 256 253 252 251 252 252 253 251 246 242 238 235 233 234 233 230 228 229 228 224 222 224 228 236 245 247 245 247 247 244 241 238 235 235 235 234 236 235 239 250 253 247 246 249 249 248 249 250 253
101 94 83 75 67 62 59 59 61 59 58 57 53 50 47 34 300 286 284 285 285 285 286 285 284 283 280 277 276 273 269 265 264 262 262 263 261 258 256 252 249 250 251 250 249 248 241 236 234 232 232 231 229 226 224 222 220 219 221 229 237 239 240 242 242 240 237 234 232 232 233 234 235 234 234 242 248 244 241 244 248 251 250 248 249
93 86 78 69 62 57 56 56 56 53 52 49 46 42 34 24 3 334 310 299 295 292 291 290 289 287 284 281 279 277 274 268 265 264 264 264 263 259 256 253 248 246 248 249 250 251 246 238 237 235 231 231 230 226 225 225 221 213 213 222 226 227 232 232 235 239 235 231 230 229 231 234 233 232 232 235 240 241 238 238 243 249 251 250 248
85 80 74 67 64 63 59 59 60 59 55 51 48 43 37 28 14 353 332 314 302 295 292 291 290 289 287 283 280 277 274 270 266 263 262 264 264 262 260 259 256 250 247 247 248 251 250 245 244 240 233 234 233 227 227 227 224 219 215 215 213 219 229 227 227 232 225 222 226 227 229 231 230 229 230 232 235 237 238 237 237 242 250 250 249
82 75 72 70 70 69 66 62 60 60 57 54 49 43 38 32 25 14 354 330 313 302 294 291 289 289 288 285 281 276 272 269 267 264 261 261 264 267 265 262 262 258 251 247 246 248 249 247 250 246 237 238 238 231 229 230 230 229 223 219 217 216 221 219 217 219 212 214 222 225 227 227 227 227 227 229 232 234 235 236 235 241 251 253 250
88 77 73 75 75 71 66 58 51 48 47 45 40 35 31 26 23 20 12 354 331 313 302 295 290 288 288 289 289 285 279 273 270 267 264 261 261 264 268 267 264 260 256 251 248 249 248 246 250 250 241 239 239 233 231 230 230 234 230 225 226 227 227 223 221 222 218 216 217 219 223 224 224 225 227 228 230 231 231 232 234 239 249 254 252
105 94 84 78 74 68 59 49 39 33 30 30 28 25 23 20 16 14 10 3 347 324 307 299 294 292 290 290 292 292 291 286 280 274 269 266 263 260 262 267 269 265 261 258 255 253 251 249 251 252 248 244 239 236 237 233 227 233 235 231 231 232 234 235 234 237 236 227 219 219 220 219 222 224 225 228 229 231 231 231 234 236 241 248 251
120 103 91 78 71 64 53 43 35 26 19 17 17 16 15 13 11 9 6 1 353 340 320 303 295 293 291 291 291 292 293 293 291 286 278 272 269 265 261 261 265 269 268 264 261 258 254 252 252 251 250 249 243 239 241 240 233 232 235 236 235 233 233 236 238 238 238 237 232 228 224 219 222 223 223 227 230 233 233 235 238 238 237 242 247
138 117 103 84 71 61 50 40 31 23 15 11 8 8 8 7 6 5 2 359 353 346 334 317 303 296 293 293 293 293 294 294 293 291 287 281 274 270 267 262 258 260 266 267 264 262 258 255 255 252 250 251 249 244 245 247 244 238 234 235 236 234 232 232 235 236 234 235 235 235 232 226 225 224 226 232 233 233 234 235 239 240 239 241 245
162 138 124 104 83 63 47 36 26 18 12 8 4 2 1 1 1 359 358 355 351 345 340 330 317 308 301 297 296 295 294 294 294 292 291 288 282 275 270 266 262 256 257 262 264 266 264 261 258 256 254 252 251 249 249 250 250 246 242 237 236 238 236 231 231 231 230 231 232 234 236 235 236 235 234 235 234 235 237 237 238 240 241 241 242